Location: Nirvana
(45.0297°N, 77.2628°W)
Time: 17:35:32
(UTC-05:00)

Envisat - Pass Details

Date: 28 October 2019
Orbit: 764 x 766 km, 98.1° (Epoch: 11 November)

Event Time Altitude Azimuth Distance (km) Brightness Sun altitude
Rises 20:12:47 0° 200° (SSW) 3,218 6.4 -23.4°
Reaches altitude 10° 20:15:31 10° 215° (SW) 2,297 5.8 -23.9°
Maximum altitude 20:19:31 23° 267° (W) 1,578 5.4 -24.6°
Drops below altitude 10° 20:23:33 10° 320° (NW) 2,310 6.1 -25.3°
Sets 20:26:19 0° 335° (NNW) 3,241 6.7 -25.8°
